This is the latest recevied weather packets stored in our database for station/object N2XP-3. If no packets are shown the sender has not sent any weather packets the latest 10 day(s).
| Time | Temp. | Humidity | Pressure | Rain* | Wind** | Luminosity | Snow |
|---|---|---|---|---|---|---|---|
| 1777837788 | 15.56° C | 35% | 1008.2 hPa | 0 mm | 1.79 m/s, 359° | - | - |
| 1777837488 | 15.56° C | 34% | 1008.4 hPa | 0 mm | 1.79 m/s, 48° | - | - |
| 1777837185 | 15.56° C | 36% | 1008.4 hPa | 0 mm | 2.68 m/s, 60° | - | - |
| 1777836946 | 15.56° C | 35% | 1008.5 hPa | 0 mm | 0.89 m/s, 280° | - | - |
| 1777836885 | 15.56° C | 35% | 1008.5 hPa | 0 mm | 0.89 m/s, 280° | - | - |
| 1777836586 | 15.56° C | 35% | 1008.6 hPa | 0 mm | 2.68 m/s, 356° | - | - |
| 1777835985 | 15.56° C | 35% | 1008.6 hPa | 0 mm | 2.24 m/s, 359° | - | - |
| 1777835685 | 15.56° C | 35% | 1008.7 hPa | 0 mm | 2.24 m/s, 103° | - | - |
| 1777835380 | 15.56° C | 35% | 1008.7 hPa | 0 mm | 3.13 m/s, 257° | - | - |
| 1777835079 | 16.11° C | 35% | 1008.6 hPa | 0 mm | 3.13 m/s, 62° | - | - |
| 1777834478 | 16.11° C | 36% | 1008.7 hPa | 0 mm | 2.68 m/s, 30° | - | - |
| 1777834178 | 16.11° C | 34% | 1008.8 hPa | 0 mm | 1.79 m/s, 231° | - | - |
| 1777833575 | 15.56° C | 36% | 1009.1 hPa | 0 mm | 1.34 m/s, 174° | - | - |
| 1777833275 | 15.56° C | 36% | 1009.1 hPa | 0 mm | 2.24 m/s, 253° | - | - |
| 1777832975 | 15° C | 37% | 1009.2 hPa | 0 mm | 1.34 m/s, 218° | - | - |
| 1777832672 | 15.56° C | 36% | 1009.1 hPa | 0 mm | 2.24 m/s, 51° | - | - |
| 1777832371 | 15.56° C | 37% | 1009.1 hPa | 0 mm | 0.89 m/s, 59° | - | - |
| 1777832070 | 16.11° C | 37% | 1009.2 hPa | 0 mm | 2.68 m/s, 20° | - | - |
| 1777831763 | 15.56° C | 37% | 1009.1 hPa | 0 mm | 1.79 m/s, 158° | - | - |
| 1777831162 | 15° C | 40% | 1009.2 hPa | 0 mm | 2.68 m/s, 11° | - | - |
| 1777830859 | 14.44° C | 37% | 1009.2 hPa | 0 mm | 2.68 m/s, 66° | - | - |
| 1777830257 | 13.89° C | 41% | 1009.3 hPa | 0 mm | 2.68 m/s, 298° | - | - |
| 1777829356 | 13.89° C | 39% | 1009.4 hPa | 0 mm | 3.13 m/s, 66° | - | - |
| 1777829051 | 13.89° C | 41% | 1009.5 hPa | 0 mm | 0.89 m/s, 212° | - | - |
| 1777828752 | 13.89° C | 41% | 1009.5 hPa | 0 mm | 1.79 m/s, 59° | - | - |
* Rain latest hour (hover to see other rain measurements)
** Current wind speed in m/s (hover to see current wind gust speed)